Location: Tuebingen alte Sternwarte
(48.5376°N, 9.0555°E)
Time: 10:04:28
(UTC+02:00)

OTV 5 (USA 277) - Pass Details

Date: 22 June 2018
Orbit: 312 x 321 km, 54.5° (Epoch: 05 July)

Event Time Altitude Azimuth Distance (km) Brightness Sun altitude
Rises 22:17:02 0° 272° (W) 2,041 ? -6.6°
Reaches altitude 10° 22:19:09 10° 285° (WNW) 1,214 ? -6.8°
Maximum altitude 22:21:31 27° 347° (NNW) 651 ? -7.1°
Drops below altitude 10° 22:23:54 10° 49° (NE) 1,220 ? -7.3°
Sets 22:26:02 0° 62° (ENE) 2,053 ? -7.6°
